sat.trackr.live / text

‹ back to catalog

ONEWEB-0108

NORAD 48076 · 2021-025AL

PAYLOAD ACTIVE UNKNOWN

§ Identity

Operator
Country
UK
Launch date
2021-03-25
Launch site
VOSTO
Launch vehicle
Mass (kg)
RCS (m²)

Purposes: comms

External: N2YO · Heavens-Above · Gunter

§ Orbital elements

Epoch: 2026-05-24T23:51:22.718016Z

Period
109.63 min
Inclination
87.8951°
Eccentricity
0.0002011
Mean motion
13.13468606 rev/d
Perigee alt
1,208.2 km
Apogee alt
1,211.3 km
Semi-major
7,587.9 km
B*
-5.6849e-4
RAAN
324.8323°
Arg perigee
90.6131°
Mean anomaly
269.5229°
Rev number
25,060

§ Raw data

ONEWEB-01081 48076U 21025AL  26144.99401294 -.00000195  00000+0 -56849-3 0  99912 48076  87.8951 324.8323 0002011  90.6131 269.5229 13.13468606250600

JSON: /api/v1/satellites/48076 · /tle

For live sub-satellite position, see the globe view (requires WebGL).

§ Visibility from observer

Set your observer location to see the next 7 days of passes ≥ 10°. The values pass through the URL so the page stays shareable.

No JS? Fill the form by hand. The geolocation button needs JavaScript.